Regional Weather Roundup
Issued by NWS Green Bay, WI

Home | Current Version | Previous Version | Graphics & Text | Print | Product List | Glossary Off
Versions: 1 2 3 4 5 6 7 8 9 10 11 12 13 14 15 16 17 18 19 20 21 22 23 24 25 26 27 28 29 30 31 32 33 34 35 36 37 38 39 40 41 42 43 44 45 46 47 48 49 50

000
ASUS43 KGRB 170511
RWRGRB

NORTH-CENTRAL AND NORTHEAST WISCONSIN REGIONAL WEATHER ROUNDUP
NATIONAL WEATHER SERVICE GREEN BAY WI
1200 AM CDT THU AUG 17 2017

WIZ005-009-010>012-018-019-170600-
NORTH CENTRAL WISCONSIN

CITY           SKY/WX    TMP DP  RH WIND       PRES   REMARKS
IRONWOOD       CLOUDY    66  58  75 E7        29.80F
MANITOWISH WTR CLOUDY    65  60  84 E8        29.82F
ARBOR VITAE    CLOUDY    65  59  79 SE9       29.82F
EAGLE RIVER    CLOUDY    63  56  78 E9        29.84F
LAND O LAKES   CLOUDY    64  56  76 SE6       29.87F
RHINELANDER    CLOUDY    64  60  87 E8        29.84F
PHILLIPS       LGT RAIN  64  62  94 E7        29.77F
ANTIGO         CLOUDY    63  60  90 E10       29.83F
TOMAHAWK       LGT RAIN  64  59  82 E3        29.81F
MERRILL        NOT AVBL
$$

WIZ013-073-170600-
NORTHEAST WISCONSIN

CITY           SKY/WX    TMP DP  RH WIND       PRES   REMARKS
IRON MOUNTAIN  CLOUDY    64  60  87 VRB3      29.85F
MARINETTE      CLOUDY    70  65  84 E10       29.84F
OCONTO         CLOUDY    69  63  81 E7        29.81F
$$

WIZ017-030-035>037-045-170600-
CENTRAL WISCONSIN

CITY           SKY/WX    TMP DP  RH WIND       PRES   REMARKS
MEDFORD        RAIN      63  62  94 E12G18    29.75F
WAUSAU         LGT RAIN  65  61  87 E9        29.77F
MOSINEE        CLOUDY    63  63 100 E12       29.79F
MARSHFIELD     LGT RAIN  66  62  87 E13G20    29.74F
WISC RAPIDS    CLOUDY    65  64  97 E13       29.76F
STEVENS POINT  RAIN      63  63 100 E12       29.78F
WAUPACA        LGT RAIN  67  65  96 E9        29.78F
SHAWANO        CLOUDY    68  63  85 E6        29.80F
CLINTONVILLE   LGT RAIN  64  63  94 E6        29.81F
WAUTOMA        CLOUDY    66  66 100 E5        29.77F
$$

WIZ038-039-048-051-170600-
FOX VALLEY

CITY           SKY/WX    TMP DP  RH WIND       PRES   REMARKS
NWS GREEN BAY  CLOUDY    67  66  97 E6        29.81F
APPLETON       LGT RAIN  64  64 100 E8        29.79F
OSHKOSH        LGT RAIN  69  67  93 SE12      29.77F
FOND DU LAC    LGT RAIN  70  66  87 SE13      29.78F
$$

WIZ022-050-052-170600-
EAST CENTRAL WISCONSIN

CITY           SKY/WX    TMP DP  RH WIND       PRES   REMARKS
EPHRAIM        FAIR      66  64  91 SE6       29.85F
WASHINGTON ISL FAIR      67  65  91 SE6       29.86F
STURGEON BAY   CLOUDY    69  64  84 E8        29.84F
MANITOWOC      HVY RAIN  69  66  90 E12       29.83F FOG
SHEBOYGAN      LGT RAIN  69  69 100 E3        29.81F FOG
$$

LMZ563-521-522-541>543-170600-
LAKESHORE

STATION/POSITION TIME  TEMP    WIND        PRES    VSBY  WAVE
                       AIR SEA DIR/SP/G                  HT/PER
                 (UTC) (F)     (DEG/KT/KT) (MB)    (MI)  (FT/S)
SHEBOYGAN LKSHOR 0500   70     120/  9/ 10 1009.3F
KEWAUNEE LKSHORE 0442   70      40/  3/  5 1009.4F
NORTHPORT PIER   0440   69     110/  8/ 10 1011.2F
N MID LAKE BUOY  0450   69 68  120/ 10/ 12 1011.7F         1/ 3
S GREEN BAY BUOY 0430   69 72  100/ 12/ 16 1010.0F
SISTER BAY LKSHO 0503   69     130/  8/ 10   N/A
MENOMINEE LKSHOR 0442   70      80/ 10/ 12 1010.1F
$$




USA.gov is the U.S. government's official web portal to all federal, state and local government web resources and services.